Theta_e
348 351 350 350 349 350 351 350 351 352 353 353 352 350 350 353 353 352 351 351 352 352 352 352 352 352 353 354 353 351 344 348 347 346 347 350 358 363 366 366 364 364 363 363 362 361 360 360 360 360 360 359 359 360 361 361 361 362 362 363 363 364 364 365 365 365 365 366 367 367 368 368 368 368 367 368 368 368 368 367 367 365 363 361 361
346 350 350 350 348 348 351 350 350 352 353 352 353 351 350 351 353 352 351 350 350 351 353 350 350 351 351 352 351 349 344 348 347 346 345 348 352 360 367 366 365 364 364 363 363 362 362 361 361 361 361 361 361 361 362 362 362 363 363 363 364 364 365 365 366 365 366 366 367 368 368 368 368 368 368 369 369 368 368 368 367 365 363 362 362
347 350 350 351 351 351 350 351 350 351 352 352 354 354 353 351 352 352 351 350 350 351 353 350 349 348 350 350 348 340 344 349 349 347 345 345 348 353 362 366 365 365 364 364 363 363 363 363 363 363 363 362 362 362 363 363 363 363 363 364 364 365 366 366 367 367 367 368 368 369 368 369 369 368 368 368 369 369 368 368 367 365 362 361 361
350 352 350 350 351 352 352 351 349 352 355 353 351 353 354 353 352 351 351 349 348 348 347 348 346 345 346 345 343 337 343 349 350 348 345 344 345 349 354 360 365 366 364 364 364 364 363 363 364 364 364 363 364 364 364 364 364 364 365 365 366 367 368 368 368 368 368 368 368 369 369 369 369 369 369 369 369 369 369 369 367 364 362 361 360
354 356 361 351 351 352 351 355 352 353 355 356 355 355 353 354 352 358 350 350 345 343 344 342 339 338 340 342 338 337 342 348 350 348 345 343 344 347 351 356 356 364 365 364 363 364 364 364 364 365 364 364 365 365 365 365 365 365 366 367 368 368 369 369 369 369 368 367 368 369 369 370 370 370 370 370 369 370 369 369 367 364 362 362 360
353 353 353 351 350 349 351 351 353 355 356 354 354 355 353 352 353 350 356 350 345 343 341 337 336 333 336 338 336 335 338 347 351 349 346 344 344 346 350 353 354 355 359 364 364 364 365 365 366 365 365 365 365 366 366 366 367 367 367 368 368 369 369 370 370 369 369 368 368 369 370 371 371 370 370 370 370 370 370 369 367 365 363 362 359
357 354 356 351 348 348 352 352 353 359 353 352 356 351 353 353 356 349 346 346 348 349 341 337 332 330 332 335 332 332 336 343 351 352 350 347 345 344 348 352 353 353 356 356 364 365 365 366 367 366 366 366 367 367 367 367 368 368 369 369 370 370 370 370 370 370 370 370 369 370 371 371 371 371 370 370 370 370 370 369 367 365 363 362 360
364 359 357 356 349 349 350 352 355 358 357 356 360 353 351 355 352 351 345 345 347 344 343 338 338 333 334 333 332 338 330 333 345 352 353 350 346 344 346 349 352 351 357 354 355 360 366 367 367 367 367 367 367 368 368 368 368 368 369 369 370 370 371 372 371 371 371 371 370 370 370 370 370 370 371 371 371 370 370 369 366 364 364 362 360
362 364 361 359 354 350 350 352 354 355 352 355 354 357 352 351 349 357 349 345 345 344 343 341 336 334 333 329 335 340 330 331 339 346 350 349 348 346 345 346 351 359 354 353 352 355 363 368 368 369 368 368 368 368 368 369 369 369 370 370 371 371 372 372 371 371 371 371 371 371 370 369 370 371 372 372 372 371 370 368 365 365 364 362 360
362 363 362 361 355 352 353 352 359 356 353 351 352 356 354 354 348 346 346 344 344 345 343 343 340 340 341 339 338 337 335 335 339 346 338 343 348 350 348 347 349 349 351 351 349 350 352 361 369 370 370 369 369 369 369 369 370 370 371 371 372 372 372 372 372 371 371 371 371 371 371 370 371 372 372 372 372 371 370 368 366 364 363 362 360
361 366 358 358 356 356 356 354 355 355 351 352 353 357 356 350 348 349 349 349 348 347 347 347 342 343 343 340 341 338 339 347 343 335 334 336 341 350 352 351 350 351 351 351 350 349 349 350 358 362 364 370 371 371 370 370 370 370 371 372 372 372 372 373 373 373 373 372 371 370 371 371 371 372 371 372 372 372 370 368 366 364 364 362 361
359 358 357 364 354 356 358 357 360 355 350 350 350 351 352 347 347 357 352 347 348 346 344 343 341 341 348 339 343 341 346 344 335 335 339 334 337 343 340 346 348 351 355 356 354 353 353 352 358 356 356 361 370 372 372 371 371 371 371 371 370 371 373 375 374 373 373 372 371 371 371 371 372 372 372 373 373 372 371 369 366 366 365 363 361
363 358 355 362 361 358 359 359 361 359 355 351 352 353 360 352 353 352 353 344 344 345 343 344 338 336 338 336 339 340 352 340 336 337 339 339 339 338 336 339 339 341 347 350 349 350 353 356 356 355 354 353 360 370 372 372 371 370 370 371 374 374 375 375 374 374 373 372 372 371 370 370 371 372 373 373 373 373 372 370 368 366 364 364 361
362 357 360 358 354 355 358 360 357 359 361 364 363 369 350 347 349 342 349 347 342 347 347 339 337 336 332 334 338 338 347 341 339 340 341 341 341 339 341 338 338 340 341 343 343 344 349 355 358 357 355 355 355 358 363 367 369 371 373 374 374 375 376 378 377 375 373 372 372 371 371 371 372 373 373 374 374 373 372 370 369 368 366 364 362
360 362 355 357 354 361 359 359 360 366 349 353 355 349 350 352 351 346 344 343 350 355 349 342 336 344 341 335 332 330 336 337 340 339 343 343 341 340 343 336 338 338 343 345 345 348 351 357 360 360 359 359 360 364 367 370 368 370 368 367 367 368 369 369 372 371 370 370 371 371 371 372 373 373 374 375 374 374 372 371 369 368 367 364 362
357 359 357 354 357 359 357 356 357 364 356 355 354 355 353 351 347 356 344 339 340 343 357 351 348 337 332 333 332 334 325 329 335 337 342 342 342 342 342 341 338 339 345 344 344 350 350 351 355 356 358 361 361 362 363 362 366 366 366 365 364 364 365 367 370 371 370 371 371 371 372 373 374 374 375 375 374 373 373 372 370 368 367 365 363
354 355 359 354 356 357 355 358 360 360 359 356 354 352 352 353 350 350 346 339 340 345 349 356 351 347 341 335 329 327 328 331 335 332 341 339 342 343 346 340 340 341 337 340 346 346 346 347 354 361 362 361 359 358 360 359 358 367 360 365 364 365 363 365 369 373 374 374 374 374 376 376 376 375 375 375 374 374 373 372 371 369 368 366 364
352 354 354 359 356 358 358 359 360 357 362 358 356 356 355 352 349 347 349 347 344 344 344 352 354 358 351 336 334 328 331 336 331 326 337 344 345 341 341 340 341 342 341 339 341 345 355 346 355 357 359 358 356 355 355 356 362 357 359 361 365 365 363 363 365 369 373 374 374 375 375 375 375 374 373 373 372 372 371 371 370 370 368 367 365
352 352 353 359 356 356 358 359 361 358 364 357 354 353 351 349 354 353 354 359 347 342 345 348 347 351 351 349 351 352 344 334 329 333 328 332 337 339 342 341 342 343 343 341 343 344 346 351 352 354 357 358 357 356 355 358 361 361 363 363 365 365 364 364 366 370 372 372 372 371 371 370 369 369 369 369 369 369 369 369 369 369 368 367 365
350 350 352 357 358 355 357 357 357 359 361 357 354 354 355 357 358 356 357 354 349 345 346 349 343 344 353 349 350 350 348 341 338 334 331 328 331 338 342 342 343 343 343 342 345 346 347 349 351 353 354 355 354 354 355 356 354 356 359 363 364 364 364 365 368 370 368 368 368 368 369 368 368 367 367 367 367 367 367 368 369 369 368 367 366
348 350 353 357 363 357 358 357 357 355 363 362 356 355 352 352 355 354 353 354 353 351 349 348 346 346 343 344 347 349 345 344 341 337 332 330 329 334 334 341 342 343 343 344 344 346 348 349 355 354 358 355 355 356 357 357 359 356 360 363 363 363 363 366 368 367 368 370 369 368 367 366 366 366 366 366 366 366 366 367 368 368 367 366 366
346 348 355 358 360 360 358 357 356 355 361 357 354 354 356 356 353 352 356 357 358 355 351 350 351 350 347 344 341 342 339 340 339 339 339 337 332 333 336 337 336 340 343 343 345 347 348 350 350 353 353 353 355 356 357 357 359 362 361 361 363 362 364 366 366 368 369 369 368 367 366 365 364 365 365 365 365 366 365 366 366 367 367 366 366
344 349 354 357 357 360 358 356 356 361 361 357 354 354 356 355 357 358 358 355 354 355 357 355 351 349 349 345 343 342 338 338 335 338 338 336 335 335 336 339 340 339 342 346 346 348 349 350 351 351 353 353 354 355 355 356 361 362 361 362 362 363 363 363 366 367 367 367 366 366 365 364 364 364 364 364 364 365 365 365 365 366 366 365 365
345 348 351 355 357 356 359 357 357 355 353 354 355 355 356 355 358 354 355 355 355 358 352 350 352 350 349 348 343 343 344 342 343 342 339 339 338 335 337 339 341 341 346 347 350 348 348 349 351 351 351 352 353 357 359 357 357 362 363 362 361 362 362 364 364 365 365 365 365 365 365 364 363 362 363 363 363 363 363 364 364 364 364 363 364
343 347 350 352 355 353 352 351 352 355 355 353 356 358 355 356 354 357 356 355 354 353 352 354 353 349 350 348 350 346 344 344 343 344 344 342 343 338 341 343 338 339 343 346 346 352 349 349 350 352 352 354 356 354 357 358 358 361 364 361 363 361 362 363 363 363 363 364 364 364 364 363 362 362 361 360 359 359 360 360 361 362 362 362 362
343 347 349 351 353 354 354 351 351 354 357 354 357 359 359 357 356 353 356 358 357 355 354 352 349 352 350 348 348 348 347 348 347 346 345 345 341 340 338 338 341 340 342 344 348 351 352 350 352 352 353 353 354 356 355 356 359 363 363 359 357 358 359 361 361 362 363 363 363 361 361 362 360 356 353 352 352 353 353 353 355 357 358 359 360
347 348 350 350 350 351 352 351 351 355 359 359 362 359 361 361 359 358 359 360 356 354 353 350 353 351 353 351 352 352 351 351 351 350 349 346 342 342 339 336 335 335 340 342 343 345 347 347 353 352 354 355 354 355 357 358 362 363 362 358 354 355 357 357 359 361 362 361 359 358 359 357 353 351 350 351 351 351 351 351 351 351 352 354 355
348 349 349 350 349 350 352 352 352 356 357 357 357 356 355 354 356 355 354 357 353 352 352 353 354 355 352 353 352 351 351 351 352 352 350 349 349 345 343 337 332 330 333 337 338 342 349 344 350 354 356 355 356 356 362 365 362 363 361 357 355 352 353 353 354 356 358 359 358 357 354 351 349 348 349 349 350 350 350 350 350 350 349 349 350
348 351 348 348 348 349 350 351 351 356 355 357 357 356 356 354 353 352 352 351 351 349 352 349 349 352 351 351 350 350 351 353 353 350 351 349 351 350 347 340 336 332 331 332 331 338 342 348 345 349 355 356 356 358 357 360 361 363 358 356 353 350 349 351 351 351 353 355 355 351 349 347 346 347 349 348 348 348 349 349 349 349 348 348 347
349 349 350 348 347 357 350 350 351 356 356 357 356 355 357 356 355 355 353 351 350 352 355 355 352 352 357 356 353 353 356 354 350 351 350 349 350 352 353 350 344 339 336 333 332 338 341 348 353 350 353 355 356 357 356 356 359 357 356 354 351 350 348 351 351 350 351 352 352 348 346 346 346 346 346 346 345 346 346 347 347 347 347 345 345
351 350 350 348 348 352 350 349 351 356 356 356 356 355 356 355 356 354 352 349 349 349 352 357 357 358 355 354 352 351 351 350 349 349 350 351 349 350 349 350 351 345 343 335 331 338 347 341 347 353 352 351 351 352 356 358 359 356 357 354 352 353 352 351 351 351 350 350 348 347 345 345 344 344 343 343 343 343 344 344 345 344 344 343 342
349 350 350 348 350 352 350 350 351 354 354 355 356 354 357 356 355 353 353 350 347 348 352 353 356 356 354 351 349 349 349 348 349 351 351 353 352 351 351 350 349 347 344 336 332 335 345 345 348 351 352 350 353 351 353 355 359 358 357 356 354 353 351 351 349 350 349 347 345 343 342 343 342 341 341 340 340 341 342 342 341 341 340 339 338
348 351 349 348 352 353 351 353 352 352 353 353 356 356 357 355 354 352 352 351 349 349 352 350 353 354 352 348 346 348 350 349 350 350 352 352 351 350 351 351 349 347 344 339 336 339 343 350 347 346 349 352 345 346 349 352 353 353 357 357 358 356 353 353 351 347 347 345 343 341 339 339 339 339 339 338 338 338 338 338 337 336 335 334 333
348 349 349 349 352 352 352 353 353 352 353 352 356 357 358 355 354 355 353 351 349 350 348 346 349 353 347 345 346 349 350 350 351 350 350 351 352 351 352 350 346 344 348 341 339 339 338 344 344 348 346 345 338 342 346 350 349 347 341 338 336 336 338 350 350 347 346 343 340 338 337 336 336 336 335 335 334 334 334 333 331 330 330 329 328
349 349 349 349 350 351 351 352 351 352 352 352 356 357 358 355 354 353 353 352 350 349 347 346 348 347 346 345 346 349 353 349 350 350 351 350 350 349 350 349 346 345 345 344 340 337 340 339 343 344 342 339 337 338 342 347 346 339 332 329 329 331 333 332 342 350 343 344 340 338 336 334 333 333 332 331 330 329 329 328 326 325 326 325 325
348 349 349 349 349 350 350 352 351 351 352 353 355 356 358 357 355 354 352 352 351 350 348 349 348 346 344 344 345 347 349 347 347 348 348 348 347 349 348 346 344 342 343 342 343 340 340 336 337 338 337 337 337 338 342 342 340 338 333 331 331 330 329 331 332 344 345 343 341 338 336 333 332 331 330 329 328 326 324 323 324 324 323 323 324
348 349 350 349 348 350 351 351 352 352 353 354 355 355 357 359 358 355 353 352 351 350 350 349 351 346 346 344 346 347 347 346 346 346 346 345 347 346 346 346 343 343 344 343 344 343 339 334 333 335 337 336 337 335 338 337 338 337 335 332 330 329 329 329 331 338 345 343 341 337 335 335 332 331 330 328 327 326 325 324 323 322 321 321 322
347 348 349 350 350 349 350 351 352 353 354 356 355 356 358 359 358 355 354 352 352 351 349 348 346 346 346 345 347 347 346 346 345 345 344 343 344 344 344 345 346 345 345 345 344 343 338 334 332 331 333 333 331 331 332 334 335 334 333 334 334 330 325 325 327 331 330 332 341 337 334 333 332 330 330 328 327 326 326 326 325 323 321 320 320
346 347 348 348 350 349 350 350 351 353 355 356 355 355 357 359 357 354 354 353 350 348 347 347 346 345 345 346 347 347 347 345 344 343 342 342 343 341 342 342 345 347 344 343 340 335 333 331 331 331 329 330 330 327 330 331 331 331 330 328 328 330 323 320 321 326 328 322 326 338 337 335 335 332 331 329 328 327 327 326 327 327 324 321 320
345 345 346 346 347 349 349 349 352 354 354 355 354 354 357 359 357 355 353 350 348 346 346 346 347 346 347 348 347 346 345 344 343 342 341 339 339 339 339 341 343 345 341 337 334 333 330 329 327 326 327 327 327 328 329 328 325 325 327 328 325 326 322 317 316 318 324 321 315 317 322 327 331 333 330 331 330 328 328 325 327 330 328 323 321
346 345 347 347 347 348 348 349 351 353 353 354 355 355 358 357 355 353 351 349 347 346 346 347 348 349 348 348 348 348 352 352 351 349 348 345 339 336 336 336 338 337 335 333 331 330 328 326 325 325 323 322 322 322 322 323 323 322 325 325 324 326 323 315 314 316 320 320 315 315 316 317 318 319 321 318 323 323 323 326 326 327 328 324 322
345 344 344 347 347 345 349 350 352 353 353 355 360 361 360 356 353 352 351 347 346 346 347 347 348 349 350 351 353 354 352 350 349 348 346 344 342 340 335 333 333 331 330 329 327 326 324 322 321 320 318 317 318 320 320 321 323 321 320 321 319 319 316 314 314 314 318 317 312 312 314 317 317 315 316 316 319 320 318 318 321 324 324 324 324
344 344 343 344 344 347 350 352 352 352 351 354 359 347 349 355 353 351 349 347 346 346 347 348 348 347 346 346 345 347 345 345 343 344 342 344 344 343 341 339 336 330 326 324 323 323 321 317 316 315 314 314 316 318 319 320 319 317 317 319 317 313 311 308 306 313 315 316 312 310 311 314 316 313 314 316 316 316 316 317 325 324 323 323 323
342 343 341 342 346 350 352 352 350 347 346 352 342 344 347 347 355 351 349 348 347 347 347 347 345 342 340 340 340 340 339 338 336 336 339 340 338 338 338 337 336 334 332 327 323 317 315 313 312 312 312 312 314 316 317 317 315 313 314 316 314 311 309 308 308 307 312 317 310 309 309 312 314 313 312 315 316 315 316 320 322 323 322 322 322
344 342 343 347 350 351 350 347 344 343 342 340 338 342 343 343 347 353 349 348 347 345 345 343 341 340 340 339 337 336 337 339 336 332 331 331 334 333 332 331 329 327 322 323 324 319 314 312 311 311 311 311 311 315 320 316 318 311 312 313 314 312 310 309 309 309 312 316 310 308 307 310 312 312 310 312 315 314 314 318 322 322 322 321 322
346 346 348 349 349 347 346 344 341 340 339 340 336 339 339 339 343 350 348 347 346 345 344 342 341 339 337 335 331 329 329 328 327 324 323 322 322 322 322 321 322 325 327 326 325 323 321 314 312 311 313 315 313 313 318 317 316 313 311 311 313 314 313 311 312 312 314 316 309 307 306 308 311 310 309 310 314 313 313 316 319 321 321 320 320
347 347 347 345 345 345 344 341 339 339 340 335 333 335 334 335 339 348 346 345 344 344 343 341 338 336 333 332 329 326 325 324 325 323 321 321 320 319 318 318 318 317 316 315 315 315 316 313 313 313 315 316 315 314 313 313 313 315 313 312 312 312 313 314 313 316 313 316 311 308 304 306 310 307 309 309 312 311 312 315 318 319 320 319 319
345 347 346 345 343 341 340 340 340 338 339 330 332 332 331 333 340 344 342 341 340 338 336 335 333 332 331 328 326 325 325 326 328 328 326 322 319 319 319 320 321 322 323 326 321 322 320 316 316 316 316 319 323 322 321 315 312 312 317 314 313 310 308 308 308 310 311 314 313 308 305 305 308 306 308 309 311 309 311 311 317 319 319 318 317
344 345 344 343 341 340 340 339 338 336 336 330 327 327 328 331 336 339 339 337 336 335 334 334 333 331 329 327 326 326 326 326 330 325 327 326 319 319 318 318 319 319 320 323 324 323 323 322 320 320 321 321 320 319 319 320 320 316 309 309 307 308 308 305 308 307 307 312 315 312 306 304 306 306 307 308 311 310 309 310 313 316 317 316 315
344 343 341 340 339 340 340 338 337 336 334 330 324 323 326 329 338 337 336 335 334 333 333 334 332 331 331 333 332 328 327 327 327 325 328 326 320 320 319 318 318 318 319 321 322 322 323 322 323 322 321 321 321 322 322 321 320 318 309 307 306 308 310 310 306 307 307 310 312 314 304 302 304 305 304 305 312 308 309 310 313 312 316 315 313
340 341 341 338 338 339 339 338 340 336 333 328 321 322 323 326 334 335 334 332 330 329 328 326 327 329 332 335 335 332 330 327 321 324 327 328 324 323 322 320 319 319 319 315 313 312 312 313 314 314 316 317 316 314 319 322 321 320 312 310 309 309 308 309 309 307 304 305 310 312 302 302 302 303 303 301 300 303 308 310 311 310 312 313 312
Wind_Speed
2 3 2 2 2 3 2 3 4 4 3 5 5 5 5 4 5 5 5 6 6 8 7 6 6 6 6 7 6 3 4 4 5 4 5 5 6 10 16 15 14 15 15 15 15 14 13 12 12 12 12 12 13 12 12 13 12 12 13 13 13 14 14 13 14 15 14 14 14 14 14 13 12 11 11 11 11 11 11 12 12 12 11 11 12
4 3 4 4 4 3 4 5 5 5 5 6 6 5 5 5 6 5 5 6 6 7 5 6 6 7 6 6 6 5 5 5 6 6 4 5 6 6 14 13 14 14 14 14 13 13 13 13 13 13 13 13 14 14 14 14 14 14 14 14 14 14 14 15 15 15 13 14 14 14 14 13 12 11 11 10 10 10 11 11 11 11 10 10 12
5 5 5 4 4 4 5 5 5 5 5 6 5 6 7 7 7 6 6 7 8 7 6 6 6 7 8 6 6 3 5 6 5 5 5 5 6 5 8 15 14 14 14 13 13 13 13 13 14 14 14 14 15 15 15 15 15 15 15 15 15 14 15 14 15 16 14 14 13 13 13 12 11 11 10 10 10 9 10 10 10 10 9 9 9
5 3 4 4 2 4 4 5 5 4 5 5 6 6 6 5 6 6 6 6 7 6 6 6 7 8 8 7 4 4 5 6 6 5 5 5 5 5 5 6 14 14 14 15 14 15 14 15 15 15 15 15 16 16 16 16 16 15 15 15 15 15 15 15 14 16 13 15 14 13 12 11 11 10 9 9 9 9 9 9 9 9 9 9 8
4 4 3 3 3 2 2 1 3 3 3 5 3 1 1 2 2 3 4 4 5 4 7 7 7 8 7 7 3 5 5 5 5 5 6 5 5 5 5 6 5 12 15 15 16 16 16 16 15 16 16 16 16 16 16 16 16 16 16 16 16 16 16 16 15 14 14 15 13 12 11 11 10 10 9 9 8 8 8 8 8 8 9 8 7
4 3 2 2 0 1 2 4 3 3 3 3 3 2 2 2 3 2 4 2 2 5 2 5 7 6 6 6 4 5 5 5 5 6 5 5 4 4 6 5 6 6 7 14 16 15 16 16 16 16 16 16 16 16 16 16 16 16 16 16 16 16 17 16 16 14 14 13 12 11 10 10 9 9 9 8 8 8 8 7 7 8 8 8 7
2 3 1 1 0 2 3 4 3 3 3 3 2 3 1 2 2 5 4 2 3 1 3 1 5 6 7 4 6 5 5 5 4 5 5 5 4 5 5 5 6 6 6 6 10 16 16 16 16 17 17 17 16 17 17 17 17 17 17 17 17 16 16 16 15 14 13 12 12 11 11 10 9 8 8 8 8 7 7 7 7 7 8 8 8
3 2 2 1 2 2 3 3 3 3 3 4 2 2 3 1 2 2 4 4 6 5 3 4 1 2 2 6 3 4 6 5 6 7 7 5 5 6 6 6 6 6 7 6 6 8 17 17 17 16 16 16 16 17 17 17 17 17 17 17 17 16 16 16 15 12 12 12 11 11 10 10 8 7 7 7 7 6 6 6 6 7 7 8 8
3 2 1 1 2 3 3 3 3 3 3 3 1 3 2 4 3 1 1 3 4 4 6 5 3 3 5 1 1 6 8 8 8 7 6 6 7 7 6 7 7 9 7 6 6 6 11 16 15 15 16 16 16 16 16 16 16 17 17 17 17 16 16 15 14 12 11 11 11 11 10 10 8 7 6 6 6 6 5 6 6 6 7 6 7
2 1 0 2 2 2 3 3 2 1 1 3 2 1 2 4 4 3 4 5 5 5 4 4 4 3 4 4 3 2 4 6 5 6 6 7 7 7 8 7 7 8 7 7 7 7 6 8 12 16 18 17 17 16 15 15 16 16 16 16 15 15 15 14 13 11 10 10 11 10 10 9 8 6 5 5 5 6 6 5 5 5 6 6 6
2 1 1 2 1 1 1 1 3 2 4 3 3 4 3 4 4 5 5 3 1 3 1 2 3 2 4 4 3 3 3 1 4 5 5 4 6 7 4 7 8 7 7 8 7 6 7 5 9 10 11 17 16 15 13 14 14 15 15 15 14 14 14 13 11 10 9 9 9 9 8 8 7 6 5 5 5 5 5 6 6 5 5 6 6
1 0 1 1 2 1 1 3 4 3 3 3 4 4 3 4 4 4 5 6 3 4 3 3 2 4 3 4 2 3 4 4 5 2 4 7 7 6 8 8 6 7 8 8 7 7 8 6 9 9 5 8 14 13 13 13 12 12 13 13 13 13 13 11 10 9 8 8 8 7 7 7 7 6 5 5 5 6 5 6 6 6 6 6 6
0 0 2 3 1 2 3 3 3 4 3 1 2 3 2 2 3 2 3 5 4 4 3 4 6 4 4 5 5 4 2 4 3 4 4 4 3 1 5 6 7 7 8 7 6 7 7 7 7 6 5 4 6 11 12 11 11 12 12 11 9 10 10 9 9 7 7 7 6 6 6 7 6 6 5 5 6 6 6 7 7 7 7 7 6
1 1 0 1 2 2 2 2 3 3 2 1 1 2 3 4 4 4 2 3 3 3 6 2 4 2 2 4 6 6 3 3 5 5 4 4 3 3 2 3 5 6 6 6 5 7 5 1 3 4 4 3 2 2 5 7 8 10 8 7 6 5 6 8 8 6 6 6 5 5 5 6 6 6 5 5 6 7 6 7 7 8 8 7 7
3 1 0 0 0 1 1 1 2 2 2 3 3 3 3 3 3 1 4 2 1 2 5 3 1 2 2 3 2 3 5 6 3 4 4 4 3 3 4 2 2 4 2 1 3 1 1 2 2 1 2 2 2 3 4 4 3 3 6 6 5 4 5 7 8 6 6 6 5 5 5 5 5 5 5 5 6 7 7 7 8 8 8 8 8
3 3 1 0 0 1 1 2 1 1 1 1 3 3 3 4 3 0 1 3 4 2 2 4 2 2 2 1 1 1 1 2 3 6 2 4 3 4 3 2 2 2 1 0 3 2 1 3 4 4 3 4 4 4 4 3 3 5 4 5 4 6 8 8 8 7 6 6 4 4 5 5 5 5 5 5 6 6 7 7 8 8 9 8 8
4 3 3 1 0 2 2 1 1 0 1 1 2 3 3 3 3 1 0 1 2 2 3 4 4 0 4 1 2 2 1 4 2 5 4 6 5 6 4 3 3 4 4 1 1 3 1 1 3 4 3 3 3 2 1 2 3 2 3 4 4 5 7 9 11 10 9 6 4 4 4 5 5 5 5 6 5 6 6 7 8 8 9 9 9
4 4 3 1 2 2 2 0 0 1 0 1 2 2 3 3 3 2 0 1 2 4 3 4 3 2 1 1 5 1 1 2 1 3 5 1 4 6 4 4 4 5 4 4 3 1 3 5 4 3 2 3 3 4 4 3 2 2 4 4 8 9 9 8 10 11 10 8 6 6 6 6 6 6 7 7 7 6 6 6 7 8 9 10 10
4 4 3 2 3 3 2 1 0 1 1 1 3 3 2 2 1 3 2 2 3 3 3 3 5 2 4 2 2 1 2 1 1 0 5 6 6 4 3 5 3 4 4 4 2 4 4 4 3 4 4 4 4 3 2 1 2 2 5 6 8 10 9 8 8 8 8 9 9 10 9 9 9 9 8 8 7 6 6 6 6 6 8 9 10
4 4 3 3 3 3 2 2 1 1 1 3 3 2 2 1 1 4 2 2 3 3 0 2 2 3 2 3 2 0 1 2 3 1 2 2 5 5 1 3 4 4 4 3 3 3 4 3 3 5 5 4 1 1 1 2 2 1 1 4 7 8 9 9 7 7 8 9 10 10 11 11 11 11 10 10 9 8 7 6 5 5 6 8 9
4 4 4 4 4 4 3 3 2 3 2 3 2 2 3 4 2 3 3 2 3 3 2 0 1 1 2 2 3 3 2 0 0 2 2 1 4 1 3 4 3 3 4 3 4 3 4 4 3 4 3 1 1 1 1 1 1 1 3 5 6 6 7 8 8 9 8 10 10 10 10 10 10 10 10 10 10 10 9 8 7 6 4 5 7
4 4 4 4 4 4 3 3 3 3 3 3 2 1 1 4 4 4 3 2 2 3 2 2 1 0 0 1 1 2 3 1 1 1 1 0 1 2 2 2 3 4 3 4 3 4 5 5 4 3 2 2 2 3 3 3 2 2 4 9 7 5 5 6 8 7 10 11 11 11 10 10 10 10 11 11 11 11 11 11 9 7 5 4 5
5 4 5 5 4 4 4 4 4 3 3 2 2 2 2 3 2 1 3 4 3 2 1 1 2 2 2 1 1 2 2 0 1 1 1 1 1 2 2 2 0 2 3 2 2 3 4 4 4 4 4 5 4 4 4 4 4 4 7 7 6 6 4 5 7 8 10 10 11 10 10 10 11 12 12 12 12 12 13 12 11 9 6 5 4
4 5 5 5 5 4 4 4 4 4 5 4 3 1 2 2 2 3 3 2 2 1 0 0 2 2 1 0 2 3 1 1 2 3 3 1 2 2 2 2 2 0 2 2 3 3 3 3 3 4 4 4 3 3 3 3 4 7 4 4 2 2 4 6 8 8 8 9 10 11 12 13 13 14 14 14 14 14 14 14 15 15 12 9 7
4 5 5 6 5 5 5 5 5 4 5 4 3 2 2 1 1 1 3 3 4 2 1 1 1 1 1 1 1 2 2 3 3 3 4 2 2 1 2 0 1 1 1 2 1 1 1 1 2 3 4 3 3 3 3 3 3 4 5 3 5 7 8 7 7 7 8 9 11 12 13 13 14 14 14 14 14 14 14 14 14 15 15 15 13
5 5 6 6 5 6 6 6 5 4 4 4 4 2 2 2 1 1 1 3 1 2 2 2 1 1 2 3 2 3 3 3 3 3 3 2 2 3 2 1 1 0 2 1 0 1 1 0 1 2 2 3 3 3 2 1 2 3 4 3 5 6 6 7 8 8 10 10 12 12 14 14 14 14 14 13 13 13 14 14 15 15 16 16 16
6 6 5 5 5 5 5 5 5 4 4 4 3 3 2 1 1 1 0 2 3 3 3 2 0 1 0 1 1 2 4 3 2 2 2 3 3 2 2 0 1 2 1 1 1 1 1 0 1 2 2 2 2 3 3 2 2 4 6 4 3 6 6 9 9 10 11 12 12 14 14 15 15 14 13 13 14 14 15 15 14 15 15 16 17
5 5 6 6 5 5 5 5 4 4 4 4 4 3 3 2 1 1 2 2 4 3 3 2 2 0 1 1 1 4 3 4 3 3 2 1 2 2 3 3 3 2 2 1 1 0 1 1 1 1 2 4 3 2 3 3 3 5 7 4 4 5 8 8 8 10 12 13 14 15 15 15 14 13 14 14 14 14 15 15 15 15 15 15 15
5 5 5 5 5 5 6 6 5 5 5 4 4 4 3 3 3 2 3 2 3 4 3 2 2 1 2 2 3 4 3 2 2 3 2 2 2 2 4 4 5 2 1 1 2 2 1 2 2 1 2 4 5 4 4 6 6 6 4 4 4 4 6 7 8 10 11 11 13 15 14 13 12 13 14 14 14 14 14 14 14 15 16 16 15
6 5 5 6 6 6 6 7 6 5 6 5 4 4 3 3 3 3 4 3 3 1 0 0 0 2 2 2 3 2 2 4 4 2 2 1 1 1 0 1 4 3 3 2 2 1 1 2 3 2 3 6 5 6 4 1 6 9 5 4 5 4 6 8 9 10 11 11 12 13 13 12 13 13 13 13 13 13 13 13 14 15 16 16 16
6 5 5 6 6 6 6 6 6 6 6 6 5 4 4 4 3 4 3 3 4 3 1 1 1 1 2 2 2 3 3 3 3 3 2 2 1 2 3 2 2 1 4 2 0 1 1 2 2 4 4 4 4 5 4 3 4 6 4 4 3 5 7 9 10 10 11 11 10 10 10 11 13 12 12 12 13 13 14 14 14 15 16 16 16
7 7 7 7 7 7 7 7 7 6 6 5 5 5 4 4 4 4 4 3 3 3 2 1 1 1 1 2 3 3 3 3 4 3 3 2 2 2 2 2 3 2 3 2 1 1 2 2 3 4 4 2 4 3 3 2 4 5 4 4 4 6 5 5 8 10 10 10 9 10 10 10 11 10 11 12 12 14 14 14 14 14 14 14 15
7 7 7 7 8 8 7 7 7 6 6 5 5 4 4 4 4 4 4 3 3 3 3 3 1 1 3 4 2 2 2 3 2 2 2 2 1 2 1 2 3 2 3 2 2 0 1 3 4 4 5 4 4 4 2 3 5 5 5 5 4 4 3 4 5 7 9 9 9 9 9 9 8 9 10 10 11 12 12 12 12 12 12 13 12
7 8 7 7 7 7 7 7 6 6 6 6 5 5 5 5 4 4 5 4 3 3 3 3 1 4 3 3 3 2 2 2 2 2 1 1 1 1 1 3 3 2 0 2 1 2 2 4 4 4 5 6 5 6 4 5 6 6 8 7 6 6 5 4 4 5 9 9 9 9 9 8 9 8 9 10 10 10 10 10 10 10 10 11 10
7 7 7 8 7 7 7 7 6 6 7 7 6 6 6 6 6 4 4 5 5 4 3 2 3 3 3 2 1 0 0 2 2 1 0 1 1 2 3 2 3 2 1 1 2 2 4 2 3 3 5 5 6 5 5 5 6 6 7 7 6 5 5 5 4 3 8 9 9 9 8 7 8 7 7 8 8 9 9 9 8 8 9 9 10
8 8 8 8 6 7 8 7 7 7 7 6 6 6 7 6 5 5 4 4 4 4 4 4 4 3 3 2 1 1 0 2 2 1 0 1 2 2 2 2 3 2 2 2 1 2 1 4 4 4 3 5 5 5 4 6 6 6 5 5 6 7 7 6 5 4 5 8 8 8 7 6 6 6 7 7 7 7 7 8 8 8 9 10 10
9 9 8 8 7 7 8 8 8 7 8 8 7 6 6 6 6 6 5 4 4 3 4 5 5 4 3 3 2 1 1 2 1 1 1 2 2 2 2 2 2 1 1 2 3 4 5 6 3 3 3 5 4 5 6 5 5 5 5 7 7 7 7 7 6 5 6 8 7 7 6 6 6 7 7 8 7 7 8 8 8 9 10 11 11
9 9 8 8 8 8 8 8 8 8 8 8 8 7 7 6 5 5 5 5 4 4 4 4 4 3 3 3 2 2 2 3 2 1 0 1 1 2 2 1 1 1 2 3 3 5 7 6 5 6 5 4 5 6 6 6 5 5 6 6 7 8 8 8 8 7 7 6 2 2 3 4 5 6 6 6 7 8 8 9 9 10 11 11 10
9 7 5 3 4 7 8 7 8 8 7 7 7 6 6 6 6 6 5 4 5 4 3 4 3 3 3 2 2 2 3 2 2 2 2 3 2 2 2 1 0 4 4 4 6 7 7 7 6 5 5 5 5 6 6 4 5 5 5 5 7 6 7 8 8 7 6 7 10 9 5 4 4 4 5 7 6 9 10 9 12 12 12 12 11
10 11 12 11 10 9 7 8 8 7 7 7 6 6 5 6 6 6 6 6 6 5 4 3 3 3 3 3 3 3 3 3 3 3 3 2 2 3 3 2 2 5 6 7 7 7 7 7 6 6 5 4 5 4 3 6 7 7 6 4 6 5 7 7 8 7 6 7 8 8 9 7 5 5 7 8 13 14 14 13 16 11 11 12 10
9 11 12 14 15 15 9 8 8 8 8 8 7 7 6 6 6 7 6 7 7 6 5 4 4 4 4 4 3 3 6 10 12 9 7 5 2 5 4 3 6 7 8 7 7 7 7 7 6 5 6 7 5 6 7 7 6 4 3 2 5 4 4 7 8 8 7 5 6 9 10 8 7 8 7 8 10 14 13 13 11 15 16 14 10
10 9 9 10 10 8 7 6 7 7 7 6 8 13 10 8 7 6 6 6 6 7 7 6 5 4 4 4 6 15 14 14 14 14 13 11 10 7 5 5 6 7 7 7 7 6 7 7 6 5 7 6 5 5 4 3 2 2 5 6 6 4 4 5 5 6 8 6 6 10 8 7 7 8 8 9 8 11 9 11 12 14 18 18 14
11 9 9 10 8 8 9 9 8 7 6 6 12 14 14 14 9 8 8 7 6 7 7 7 7 6 7 7 7 11 12 13 13 15 13 15 16 16 16 13 9 6 8 9 6 5 8 7 5 6 6 6 5 3 4 3 4 5 5 4 6 7 8 8 6 5 7 7 6 7 10 8 7 8 8 9 9 9 10 11 17 19 19 20 20
9 8 8 9 9 9 9 9 9 8 6 7 13 15 15 14 12 9 8 8 7 7 7 7 7 7 7 7 7 6 7 9 8 10 14 18 17 19 19 18 17 16 12 7 8 7 6 8 8 6 5 5 4 5 4 4 5 6 6 6 6 7 8 8 6 6 6 4 6 7 8 8 7 8 8 8 8 8 10 15 19 19 20 20 20
8 8 7 8 9 10 11 11 9 8 7 9 13 15 15 15 15 11 8 8 8 8 7 8 8 7 7 7 7 5 6 13 8 7 8 12 19 22 22 22 21 18 15 15 12 8 5 8 8 7 5 3 6 5 4 2 2 6 5 6 5 6 6 8 5 5 7 5 5 7 9 8 7 7 8 8 8 8 9 14 19 19 20 20 21
7 8 8 10 10 11 11 11 10 8 8 9 13 15 16 16 15 11 8 8 8 8 8 8 7 7 7 7 8 7 6 6 7 9 9 9 9 10 10 9 10 15 17 16 15 15 10 8 9 9 5 5 6 4 5 3 6 6 6 5 3 5 7 6 3 4 4 5 5 2 6 9 7 6 7 7 7 8 8 12 17 19 18 19 21
10 10 11 10 10 10 10 10 10 9 7 13 14 16 16 16 15 12 8 8 8 7 7 7 7 7 7 7 8 8 7 7 6 9 10 9 9 9 10 10 10 9 8 8 8 8 8 8 9 9 8 7 7 7 6 7 7 5 5 5 4 3 3 2 4 5 6 7 6 4 7 5 6 6 6 6 6 7 7 10 16 18 18 17 18
3 7 8 10 11 9 9 10 9 8 7 12 14 17 17 17 17 9 9 9 9 8 8 7 7 7 7 8 9 9 8 8 10 14 12 10 10 10 10 9 8 8 8 8 11 12 10 8 8 9 9 10 11 10 9 7 6 5 5 5 7 6 6 7 7 6 7 6 6 5 4 6 6 6 5 5 5 7 8 8 13 17 17 17 16
7 8 9 8 8 10 10 9 10 9 8 10 16 18 18 18 13 9 9 9 9 9 8 8 8 8 8 8 9 9 8 8 11 12 13 12 9 10 9 9 7 7 7 6 10 12 12 15 18 18 16 16 15 16 15 15 10 4 3 8 7 3 6 6 6 7 7 5 5 5 3 5 6 5 5 5 3 5 7 8 8 12 15 15 17
9 7 6 7 7 8 10 10 10 12 9 12 17 18 18 17 15 12 11 11 10 10 9 7 7 7 9 15 10 9 9 9 11 12 11 9 8 7 8 8 8 8 6 5 6 9 14 15 16 17 16 15 14 15 16 15 14 9 8 8 2 2 7 5 6 6 5 6 5 4 3 4 4 4 3 4 3 2 7 7 8 9 11 10 14
2 5 6 7 5 5 7 10 14 14 12 12 17 18 18 18 15 11 11 11 11 10 10 9 7 6 6 8 11 9 8 9 10 10 11 9 7 5 5 6 7 8 6 7 8 8 7 8 8 9 9 11 10 8 11 17 16 12 7 6 5 7 7 7 5 2 4 6 6 4 5 5 5 6 3 2 4 4 5 6 7 7 7 6 7
Wind_Direction
225 207 163 206 225 223 220 230 224 235 223 243 238 255 264 261 255 249 233 232 229 236 229 234 230 225 226 241 238 203 188 178 158 188 182 176 180 188 189 192 196 201 205 208 210 213 216 220 226 228 232 237 242 247 253 257 262 265 269 272 275 277 278 280 277 279 281 284 285 286 286 291 296 300 305 310 313 315 316 318 321 326 331 334 330
233 225 191 214 211 215 224 233 230 227 221 229 220 222 243 251 249 254 266 265 259 255 251 251 247 249 238 239 231 217 179 174 173 185 168 175 183 191 192 194 199 205 209 213 216 218 221 224 227 230 233 236 240 245 250 255 258 261 263 266 269 272 274 275 275 276 277 279 279 281 284 290 295 302 309 311 312 316 318 319 323 328 334 336 331
202 214 207 206 209 212 225 222 232 237 227 231 212 210 223 230 229 223 231 238 246 252 253 250 253 259 255 241 240 203 188 182 165 159 169 180 188 189 200 199 201 207 211 216 218 221 224 226 227 229 231 234 237 241 246 250 254 257 261 262 264 265 269 269 273 274 276 275 273 276 283 287 295 304 308 310 311 315 318 320 325 330 333 332 333
184 172 159 159 184 211 226 210 221 212 208 203 198 201 205 215 213 213 220 228 242 244 233 234 243 244 247 239 212 184 192 177 164 174 172 187 190 198 208 212 206 207 213 216 218 221 224 226 228 230 230 232 235 238 242 246 251 255 259 261 262 263 265 266 267 271 275 277 276 277 280 286 295 301 305 309 314 317 319 322 326 329 330 331 337
159 150 153 157 199 213 254 310 289 283 283 262 293 352 23 243 194 186 187 190 248 217 193 200 219 234 236 239 185 179 197 166 170 170 182 189 196 195 205 215 220 216 216 217 219 221 223 225 228 230 232 233 235 238 241 245 249 252 256 258 261 263 264 266 266 272 268 265 272 275 279 285 292 299 304 307 315 316 317 321 324 328 327 331 338
129 125 150 161 111 359 308 279 268 273 290 323 328 341 297 338 336 352 3 12 321 351 2 170 201 224 230 230 184 177 181 177 175 186 187 189 197 203 205 212 215 223 224 224 224 225 226 226 228 231 234 236 239 242 245 247 250 252 254 257 261 263 266 267 267 263 266 267 267 270 276 279 288 296 302 306 311 316 318 318 320 325 327 330 337
127 134 114 116 11 313 288 262 279 301 294 305 324 260 294 356 344 14 348 323 18 345 34 319 200 184 230 209 202 166 182 175 179 182 199 191 187 212 211 212 213 218 224 229 230 228 228 229 229 230 232 232 234 237 241 244 248 251 254 256 259 262 263 265 265 265 265 266 269 270 274 278 283 290 298 304 308 313 315 311 314 322 326 328 333
146 140 142 214 222 261 272 316 323 309 311 294 273 310 322 19 28 53 359 2 8 357 37 39 51 241 233 195 174 156 153 153 186 202 197 175 199 207 210 213 214 217 216 220 227 232 229 227 229 233 235 235 235 235 237 240 244 247 251 254 257 260 261 263 264 263 263 263 267 270 273 279 285 288 292 300 303 304 300 299 304 319 323 325 329
155 127 120 249 252 238 273 275 274 305 280 293 4 346 316 36 2 52 92 18 7 358 12 21 40 73 72 21 217 138 160 172 190 199 186 186 202 205 205 215 215 218 219 219 220 230 238 231 235 235 241 242 240 238 238 241 243 245 247 250 254 255 258 260 262 262 264 264 267 270 277 282 285 284 287 294 293 288 286 285 294 307 313 316 322
119 129 113 245 246 243 275 275 355 233 2 33 12 318 26 54 9 349 25 25 2 11 3 352 21 17 51 56 13 288 176 172 186 181 185 197 208 207 207 212 211 216 214 218 218 224 229 228 244 241 237 235 237 237 235 237 241 244 246 249 251 254 255 258 260 261 263 264 269 273 277 281 281 280 283 284 283 279 274 270 279 289 294 302 307
94 145 168 182 165 268 285 244 200 91 58 36 21 18 10 29 37 350 353 2 2 338 357 317 41 13 41 41 4 343 350 304 102 150 186 194 208 220 217 222 218 215 217 215 218 217 225 164 212 231 231 227 230 232 231 234 239 243 248 250 253 256 259 261 261 261 261 263 268 272 277 278 276 276 277 274 271 268 265 258 255 267 275 279 288
118 147 46 26 41 15 34 28 48 80 63 45 18 24 17 10 6 4 350 346 15 29 27 8 48 52 15 25 15 348 7 29 62 103 161 183 204 212 211 215 217 219 219 219 210 216 221 192 209 234 236 228 226 227 230 235 239 244 248 251 257 262 264 266 267 266 263 265 268 269 273 273 272 274 275 273 273 268 253 240 238 244 253 256 265
151 126 41 14 37 23 40 45 45 79 71 24 348 2 7 17 15 5 24 11 337 6 27 72 38 4 3 2 352 344 348 61 59 29 10 0 359 54 223 201 206 219 225 219 209 220 223 211 206 227 231 223 225 229 234 242 247 251 254 257 261 268 274 278 280 274 273 271 264 265 267 270 270 273 279 280 280 270 255 240 233 234 239 242 250
182 171 89 58 5 21 48 54 50 57 70 25 5 350 3 8 22 360 14 33 342 359 337 66 20 84 30 332 347 335 351 15 33 360 356 2 343 329 296 222 215 219 231 227 215 221 238 234 224 214 217 216 208 211 235 246 249 251 259 279 288 300 305 303 291 280 278 275 268 262 265 267 266 275 281 285 286 278 263 249 239 233 233 236 239
182 183 171 17 81 76 109 94 48 31 29 1 2 345 352 1 15 35 336 338 344 338 5 68 151 136 109 75 344 16 331 358 336 351 341 347 344 355 337 10 263 235 173 168 253 340 42 150 175 174 164 152 163 195 214 217 203 133 75 54 41 40 10 337 305 292 287 282 277 272 270 267 269 278 287 292 294 286 272 255 244 236 230 231 235
183 176 176 104 109 152 183 102 69 73 101 345 338 320 331 326 337 65 113 10 5 312 18 33 102 85 5 69 202 119 359 317 316 298 321 324 341 346 340 13 317 5 116 95 95 134 174 187 172 169 136 156 159 174 172 159 108 88 75 66 47 30 17 351 323 307 296 290 290 289 285 283 289 298 300 294 289 280 269 259 247 238 231 229 232
178 176 197 202 161 152 160 128 165 128 121 24 314 280 280 278 268 212 103 126 10 327 322 16 18 82 143 75 6 25 223 247 339 293 350 345 338 341 356 359 9 22 38 69 221 78 41 359 32 58 119 133 133 135 95 45 21 25 31 52 37 44 23 7 352 333 314 318 330 325 316 316 315 312 308 311 298 283 272 264 249 236 229 226 229
175 186 198 182 167 194 137 118 20 323 171 230 258 309 322 298 266 200 144 192 129 48 351 345 18 22 66 169 166 168 240 274 75 304 323 278 305 340 10 6 27 27 18 14 31 48 50 56 56 71 53 42 36 34 37 27 35 360 17 7 21 16 19 10 1 352 339 344 356 358 353 345 344 344 347 343 335 318 303 283 264 243 232 224 226
188 188 198 185 180 178 141 145 244 266 266 197 272 283 277 290 186 108 154 117 90 75 36 309 345 0 9 11 17 1 143 109 249 82 343 320 339 349 346 353 18 36 23 39 43 41 39 68 83 75 55 46 40 38 55 61 98 82 56 32 21 20 1 1 15 0 358 11 16 14 11 6 4 5 4 360 353 344 326 313 290 263 243 233 231
183 199 194 184 186 184 163 172 181 275 245 243 246 266 298 350 229 133 144 112 109 119 24 1 88 290 322 352 360 336 239 42 137 176 196 268 311 328 302 349 4 48 27 47 42 50 49 44 68 67 60 48 51 128 154 148 169 151 79 36 36 19 356 343 15 27 39 44 37 33 28 22 19 16 12 8 3 358 350 337 326 295 256 239 227
190 188 197 187 193 182 175 195 219 254 276 271 257 228 218 185 198 125 143 140 147 160 132 166 112 329 352 335 359 10 19 73 183 122 145 176 287 280 305 324 343 28 38 51 38 33 35 31 43 68 77 83 40 41 22 359 11 350 3 23 35 32 1 355 18 36 43 52 53 49 43 38 32 25 22 19 15 9 0 351 339 328 296 254 234
205 193 192 190 183 176 175 189 217 234 252 250 251 263 156 169 193 161 161 153 166 153 157 183 155 131 135 231 15 344 20 9 5 350 8 140 215 270 281 326 5 333 19 58 39 23 25 24 28 34 42 42 17 13 354 3 5 348 360 12 20 52 43 32 36 48 60 62 62 59 52 43 35 29 25 23 20 16 11 2 352 342 325 289 258
197 198 194 187 184 182 182 203 214 226 244 244 214 209 214 194 219 144 155 162 189 147 128 126 101 47 45 178 201 177 162 166 253 236 174 210 5 309 306 274 260 5 20 50 33 24 28 17 24 4 355 349 357 359 356 346 356 25 17 20 43 70 58 52 65 66 66 66 65 61 55 47 41 35 30 26 24 21 18 15 8 356 341 321 283
195 187 195 192 184 192 195 203 220 228 236 228 238 210 178 183 196 175 192 193 190 119 100 26 25 41 32 42 131 145 143 176 210 177 180 212 169 244 252 305 7 306 133 62 24 32 23 15 2 352 341 347 346 350 351 357 347 5 5 29 71 66 72 77 74 70 68 66 65 63 59 53 46 40 32 27 25 24 19 18 13 13 6 342 317
209 192 200 191 184 192 200 199 223 228 232 233 221 176 151 161 152 138 160 172 188 173 140 78 107 95 189 227 220 168 195 227 190 199 213 180 163 200 271 163 181 289 253 165 121 21 4 343 337 348 341 336 339 350 343 345 336 339 27 46 35 31 38 58 71 70 64 62 63 63 63 60 53 45 39 33 29 25 23 21 14 9 11 13 4
194 203 199 193 187 195 199 207 212 218 221 216 196 180 155 170 163 145 199 216 161 119 122 122 139 135 167 175 231 219 241 233 224 195 207 138 187 193 219 343 41 272 300 17 182 129 274 334 351 325 324 327 323 327 313 313 300 350 52 77 36 27 43 53 60 60 62 63 64 64 64 61 54 48 42 37 30 27 27 24 19 13 10 10 11
190 202 203 203 201 195 200 209 210 212 212 199 185 158 156 139 157 176 328 69 111 118 130 165 126 343 358 244 242 272 271 264 261 247 239 235 199 183 138 347 335 4 336 313 321 107 176 224 331 323 339 343 323 327 320 312 340 13 49 69 62 41 49 44 44 53 61 63 65 65 63 59 53 46 41 35 29 27 26 25 22 20 15 10 11
189 190 206 202 207 205 208 213 212 204 205 186 180 176 177 165 175 169 79 133 141 146 170 177 177 185 269 272 318 284 282 287 307 315 346 298 211 175 142 129 143 290 328 328 343 312 179 207 304 276 330 352 340 335 331 343 13 33 54 61 63 53 52 52 47 46 57 63 66 66 63 60 54 47 41 37 32 28 27 26 24 22 20 17 15
192 191 199 206 207 208 208 213 208 205 199 192 180 178 175 196 206 164 163 163 153 173 180 177 207 210 249 237 240 253 269 318 19 46 32 39 55 131 164 158 160 149 215 286 278 234 315 35 66 316 341 358 2 344 18 26 25 58 50 66 68 67 73 70 55 54 54 62 74 75 73 69 61 50 44 39 35 31 27 27 26 25 24 22 20
201 202 193 204 205 206 205 208 202 198 196 191 187 187 175 198 193 175 173 152 148 159 127 104 272 240 269 304 311 343 357 51 65 50 55 13 28 19 154 139 142 160 181 177 257 238 271 11 47 351 355 17 12 12 103 129 46 68 359 70 82 83 76 63 59 59 61 67 75 77 74 68 59 53 47 42 37 33 30 29 28 29 28 27 23
210 205 204 210 203 203 199 201 195 193 191 190 194 189 184 179 169 165 167 154 142 158 235 143 210 233 273 344 21 47 23 47 46 30 11 14 29 39 23 36 46 119 162 136 104 302 348 40 340 20 1 17 15 18 3 42 46 103 126 94 92 88 72 60 58 64 70 74 79 79 74 66 61 55 51 46 40 36 34 32 32 31 31 31 30
212 206 203 205 201 198 196 197 190 190 188 193 188 189 183 178 175 168 175 144 147 170 173 214 216 281 2 78 52 33 15 40 42 24 10 33 98 78 54 67 70 81 114 114 146 217 358 21 1 1 347 345 33 6 341 29 49 62 76 94 94 83 71 69 66 78 85 90 90 85 76 68 65 61 55 48 41 37 35 35 35 34 32 32 32
207 199 194 196 194 190 188 189 188 189 193 195 192 180 176 173 180 175 165 164 170 185 176 198 256 82 72 72 44 8 2 68 65 34 18 21 56 62 82 93 91 76 104 112 132 167 3 21 40 355 350 347 15 355 27 41 53 49 49 58 67 62 63 74 92 95 103 103 97 92 83 74 70 62 55 48 44 40 37 35 35 36 34 33 32
207 201 193 185 189 186 183 188 193 190 196 194 187 174 172 175 179 172 170 166 166 173 174 191 110 68 98 95 46 11 9 104 87 60 14 15 12 50 99 115 108 79 76 114 166 149 111 25 16 357 25 9 33 3 39 63 61 67 62 54 50 51 47 43 94 110 116 108 103 93 83 77 71 60 57 52 46 42 38 32 32 35 36 33 29
205 199 195 191 188 188 186 189 193 194 194 195 186 180 180 180 180 179 173 174 170 171 183 172 96 114 97 112 117 304 20 88 106 95 325 353 15 89 90 100 121 123 74 109 128 131 122 62 350 34 24 21 35 355 20 52 73 71 71 54 48 45 44 44 62 101 118 116 110 96 83 74 66 59 56 52 45 38 32 27 24 32 33 32 31
205 205 198 194 186 186 189 190 193 193 194 194 188 186 183 181 180 177 174 179 176 178 175 134 126 121 146 139 181 237 171 127 145 141 334 25 69 100 119 130 140 150 156 93 106 111 75 96 23 48 14 37 22 4 19 58 66 62 63 57 46 46 40 38 47 70 103 110 106 101 94 76 63 55 52 47 38 27 19 16 20 29 29 27 28
203 202 201 197 191 186 188 187 191 189 190 189 185 187 183 180 178 172 169 167 173 169 145 140 140 152 152 147 166 196 169 132 112 71 36 76 106 124 138 160 149 169 144 134 105 108 125 117 110 28 22 46 18 27 25 42 48 52 49 52 45 37 34 37 39 70 98 89 81 91 92 76 62 46 39 37 28 20 16 13 17 27 28 26 23
200 195 194 198 192 193 194 185 182 185 183 183 185 183 180 173 168 165 159 160 160 142 135 130 147 151 144 153 172 165 150 134 125 124 76 84 73 50 25 5 202 153 114 112 110 101 102 96 91 72 20 36 36 40 17 26 46 44 38 40 50 41 37 39 37 31 35 50 104 118 69 63 50 40 27 27 22 17 17 14 20 23 24 23 23
191 161 211 182 264 208 197 181 184 182 179 180 180 176 168 164 162 159 148 131 122 121 121 134 140 141 135 133 122 110 118 134 127 83 54 45 61 43 17 340 342 147 117 88 90 94 95 99 78 72 75 32 47 45 9 15 61 55 49 42 51 39 47 45 37 27 26 37 42 53 64 52 36 15 356 350 9 20 9 14 21 23 19 16 16
184 178 187 197 206 235 199 181 182 176 174 176 172 168 166 164 158 149 137 130 125 120 127 131 133 131 122 111 106 103 96 81 82 68 67 87 64 62 20 42 85 112 103 99 94 91 87 80 78 73 54 56 39 35 22 34 38 28 22 45 70 48 51 46 47 35 6 37 36 32 35 31 27 11 359 351 22 26 22 15 12 8 12 7 8
191 190 188 194 190 207 189 181 176 174 175 175 171 165 158 156 149 140 135 133 131 128 126 121 118 120 119 115 114 111 101 91 87 87 89 85 81 79 43 58 90 96 99 94 97 93 85 85 79 67 71 56 38 34 35 31 35 2 328 19 72 50 64 55 34 35 27 32 42 44 32 16 23 29 20 27 30 27 20 10 6 1 357 357 356
197 190 192 192 191 174 166 172 169 169 177 175 173 168 160 153 143 134 130 132 133 135 131 124 120 122 120 114 109 104 94 92 90 89 89 85 83 84 75 61 89 94 94 97 90 92 94 84 69 76 73 56 35 30 48 25 351 353 41 43 62 26 49 52 49 34 19 17 42 47 32 15 19 23 24 25 24 23 17 16 7 7 7 4 358
201 196 190 194 182 174 167 164 166 166 168 176 168 160 153 143 137 140 139 137 137 136 134 133 129 112 92 88 90 93 92 86 84 83 83 88 85 84 83 81 77 93 112 98 86 93 97 89 83 70 75 68 37 16 38 11 24 36 42 47 68 58 53 50 27 329 25 13 35 48 32 10 20 28 23 24 19 16 14 10 5 11 10 9 7
209 197 189 187 173 167 162 162 161 159 162 167 161 158 149 145 142 140 141 142 144 141 138 131 124 117 109 101 92 87 87 88 84 87 88 86 84 83 82 81 80 75 68 83 109 99 95 100 84 69 71 63 45 32 11 28 26 44 43 60 63 75 69 61 45 28 330 21 45 50 33 13 14 26 26 19 14 12 8 7 8 9 11 11 11
185 186 177 166 165 161 158 159 158 155 153 168 162 153 148 144 142 137 139 141 140 140 135 131 127 124 122 112 98 79 85 93 85 83 85 86 85 85 84 83 80 76 73 71 69 83 97 87 90 70 51 71 58 30 15 12 25 68 51 59 59 70 83 79 62 34 355 357 58 49 39 9 12 16 24 10 7 6 4 5 6 11 15 18 21
162 162 164 162 161 162 163 160 155 156 156 171 158 148 144 142 140 136 135 134 133 133 133 130 127 125 124 119 111 100 91 88 94 95 89 85 83 79 76 76 80 83 82 80 78 76 72 80 81 80 48 58 68 51 33 38 59 53 60 61 57 82 75 81 76 46 5 10 63 94 46 18 4 6 19 357 356 1 2 359 7 13 19 25 32
161 159 159 159 164 163 159 152 150 156 166 163 158 147 142 138 133 128 126 123 121 120 118 115 116 118 114 112 107 110 108 102 106 108 102 100 95 91 89 85 82 80 75 73 72 74 74 73 76 77 69 58 59 54 44 43 55 58 74 79 71 75 75 48 49 31 28 17 23 58 52 1 358 13 11 350 345 356 357 359 7 12 18 29 36
142 145 150 154 156 155 152 150 145 146 151 160 149 140 135 130 126 120 118 116 113 109 105 108 110 106 106 107 110 112 114 112 112 107 108 107 102 100 95 90 84 76 71 65 77 83 81 78 77 77 73 67 64 59 54 50 43 33 51 64 54 42 59 57 50 13 31 6 27 49 55 24 357 12 342 333 339 4 357 3 3 8 13 23 33
158 162 155 155 151 147 148 148 142 139 144 156 143 136 131 126 118 117 115 109 108 106 105 111 110 112 116 120 122 121 116 115 111 105 106 105 102 101 101 98 95 91 84 78 69 69 67 70 73 69 64 61 58 57 55 54 51 41 62 60 39 21 66 72 62 45 27 5 17 32 62 23 356 4 333 322 335 8 5 360 357 4 11 21 26
160 155 142 135 144 149 147 149 150 142 143 153 140 134 131 131 129 127 124 119 117 113 108 101 109 115 125 125 117 117 117 116 115 108 104 101 99 100 103 106 100 92 83 74 75 73 71 74 73 69 63 58 54 53 52 51 51 48 56 62 351 53 60 63 84 73 42 22 9 359 76 6 313 4 354 307 330 5 8 358 2 2 9 16 21
110 126 136 134 129 135 149 146 147 138 141 150 142 137 134 132 129 127 125 123 120 119 115 100 82 85 88 98 103 104 108 115 113 111 108 105 101 107 113 108 100 88 87 96 91 82 69 66 59 64 53 53 52 48 44 44 43 45 51 58 38 61 74 63 60 58 48 15 350 344 66 356 4 2 45 17 356 312 2 358 3 4 11 10 12